Theta_e
302 302 302 303 302 302 302 301 302 302 302 303 304 305 308 311 310 306 303 304 304 307 310 304 305 312 306 298 301 303 302 302 301 301 301 300 299 300 302 302 302 302 301 301 302 301 303 306 305 305 304 301 299 292 287 291 296 298 300 299 297 300 302 302 305 306 301 296 293 293 294 294 297 298 297 299 302 302 303 303 301 300 299 299 299 301 302
302 301 302 303 302 302 302 301 302 302 302 303 302 307 314 312 307 306 304 302 304 307 308 305 309 316 306 301 303 301 299 301 300 301 303 301 301 304 305 302 300 301 300 301 302 300 301 304 301 301 306 303 294 287 287 292 298 299 299 300 297 300 305 304 304 307 306 304 304 301 298 296 298 299 296 296 298 299 298 296 296 299 301 300 301 302 301
302 301 302 302 302 302 302 301 302 302 302 302 301 306 310 307 304 307 306 302 302 306 309 309 312 318 313 306 303 302 301 300 300 302 303 301 301 303 303 300 300 301 300 301 302 301 301 302 300 299 302 301 294 290 289 292 299 296 293 295 297 300 304 303 303 306 306 307 309 308 305 301 299 298 297 295 296 297 299 300 298 299 300 299 301 302 300
303 302 302 303 302 302 302 301 301 301 301 302 302 300 303 304 305 311 313 308 305 302 302 310 315 315 313 305 301 303 304 301 298 299 301 300 299 300 300 299 300 301 301 303 305 303 300 300 300 302 304 302 297 292 289 291 295 293 291 294 298 300 300 300 304 307 305 305 304 301 301 301 299 299 299 298 296 295 298 301 301 301 299 298 300 300 298
303 302 302 303 302 302 302 301 301 302 301 302 302 301 301 304 306 307 309 310 310 305 303 309 311 305 304 301 300 303 304 301 297 297 299 299 298 299 299 299 300 301 302 304 305 303 301 300 300 301 304 303 296 290 289 292 292 293 294 295 297 301 301 300 302 303 301 301 300 297 297 298 297 297 298 299 298 295 296 298 299 300 300 299 299 299 298
302 302 302 302 303 302 302 301 300 301 301 301 303 303 302 303 304 301 299 302 306 303 303 307 308 302 301 301 300 303 306 304 302 299 298 298 298 298 300 300 301 302 302 301 303 304 303 302 302 302 302 302 299 294 293 292 291 292 294 295 298 303 302 298 298 300 300 298 297 296 296 296 296 297 297 298 297 296 296 297 297 297 297 298 298 298 298
302 303 302 302 302 301 301 301 300 301 301 301 303 303 300 302 304 299 296 300 305 303 300 304 308 304 303 303 301 303 308 306 302 299 299 300 298 297 300 302 301 303 302 300 302 306 303 301 303 304 302 301 302 300 298 295 291 292 295 295 296 300 304 299 296 299 300 297 297 296 296 297 298 297 297 296 295 296 295 295 295 294 295 295 295 295 295
302 302 302 301 301 300 300 300 300 300 301 301 302 302 302 305 306 302 300 302 304 302 300 303 305 302 301 302 300 302 308 307 301 298 300 301 299 297 300 302 303 304 303 300 302 305 303 299 300 302 302 301 302 303 301 299 295 294 296 296 292 295 301 299 296 300 301 300 299 297 296 297 297 298 299 297 296 296 295 294 294 294 296 295 294 293 294
301 301 301 301 301 301 300 300 300 300 301 301 301 300 301 302 300 301 306 305 302 304 303 301 304 304 302 302 301 302 306 304 300 300 300 301 301 300 302 305 304 301 301 302 304 304 301 299 299 299 300 300 300 299 298 301 303 299 296 295 294 295 298 296 297 302 303 301 300 298 295 294 296 299 300 298 298 298 298 298 298 297 297 297 296 296 295
301 301 301 300 300 300 300 300 300 300 300 301 302 300 301 301 298 299 304 303 302 304 303 299 301 304 305 303 301 302 305 302 300 301 303 301 301 300 302 304 303 302 305 305 303 300 297 296 296 295 296 298 298 297 296 300 305 302 297 295 293 295 299 299 298 302 305 302 298 296 296 298 300 298 297 297 297 298 298 299 297 296 295 296 297 297 295
300 300 300 300 300 300 300 299 300 300 300 301 301 300 301 303 302 303 307 305 303 300 302 301 301 302 303 302 301 302 304 303 301 299 301 302 299 296 298 300 300 303 304 298 293 292 292 292 292 293 295 297 297 296 296 297 297 296 298 298 294 292 297 298 295 300 307 303 297 297 300 304 303 298 295 296 296 297 297 296 295 295 294 295 296 294 293
300 300 299 300 300 299 300 300 299 300 300 300 301 300 302 302 300 305 310 305 302 299 301 305 305 303 303 303 304 305 304 304 302 300 299 300 299 297 298 298 300 301 297 291 290 291 291 292 293 294 295 296 296 296 297 297 293 291 293 298 297 295 296 297 294 297 303 301 300 303 305 303 300 298 297 295 295 297 296 295 295 295 294 293 294 292 292
300 300 299 299 299 299 300 300 299 300 299 300 300 300 303 301 298 304 308 304 307 308 305 304 302 301 304 305 305 303 300 299 299 299 299 299 300 301 299 297 298 297 291 290 292 294 295 295 296 297 295 294 294 295 296 295 294 293 292 295 298 299 299 297 295 296 298 299 300 304 303 299 297 299 298 295 295 296 295 293 295 296 294 293 292 292 292
299 299 299 299 299 299 300 300 299 300 299 300 300 299 302 302 301 304 306 304 309 308 303 304 306 304 306 307 303 301 299 297 298 298 297 297 300 304 298 294 294 292 288 291 294 294 297 301 305 305 301 298 297 297 296 294 293 294 294 292 294 297 298 297 296 296 296 297 299 301 300 297 296 297 296 294 294 294 294 293 293 294 294 292 291 291 291
299 299 299 299 299 300 300 300 299 300 299 299 300 300 301 302 301 302 302 305 308 303 298 304 307 305 307 307 302 301 303 302 300 298 294 293 298 302 296 291 291 290 288 292 299 301 299 300 306 309 307 306 302 298 299 298 293 291 292 292 291 294 296 297 297 296 296 297 300 302 303 302 298 295 294 293 293 293 292 292 293 294 293 292 291 291 291
299 299 299 299 300 300 300 300 300 299 299 298 299 300 300 302 303 300 300 305 309 303 299 300 301 304 307 303 298 299 302 303 301 299 300 299 298 298 293 289 289 290 291 296 301 303 302 302 303 304 304 302 300 298 299 301 297 292 291 293 293 294 296 297 298 299 298 298 301 302 304 303 297 293 293 293 292 291 290 291 295 295 292 291 291 290 290
299 299 299 299 300 300 300 301 300 299 299 298 299 301 301 302 303 301 301 305 305 301 296 291 296 304 305 301 299 298 298 299 298 299 303 303 299 298 296 291 290 290 292 298 302 302 304 305 301 302 303 299 297 299 300 300 301 297 294 296 297 297 297 297 299 301 298 297 300 301 301 299 294 292 293 292 290 290 290 291 295 295 292 291 291 290 289
299 299 300 300 300 300 300 300 300 299 299 299 301 302 302 301 301 301 303 306 304 300 292 284 293 301 299 298 299 298 296 298 299 299 302 302 300 301 299 295 294 293 292 297 303 304 305 303 299 300 303 296 293 298 299 298 300 298 296 296 296 297 297 294 295 299 298 296 299 300 299 297 293 292 293 292 290 291 291 291 291 292 291 291 290 289 289
299 299 300 300 301 301 300 300 300 299 300 300 301 300 300 300 300 300 301 303 304 302 292 282 289 295 291 291 297 296 295 296 298 301 305 303 298 296 295 294 295 294 294 298 302 301 301 301 296 296 301 301 298 298 298 297 297 296 296 296 295 296 296 293 293 297 296 295 297 299 298 295 291 291 293 292 291 291 291 290 291 291 291 290 290 290 289
299 299 300 300 300 300 299 299 299 299 299 299 299 299 298 297 298 299 301 305 310 306 292 283 287 290 288 291 297 298 297 297 298 303 308 303 294 293 299 300 296 295 298 300 299 297 299 301 297 294 301 305 300 297 297 298 296 294 295 296 295 295 296 296 296 295 292 294 298 298 297 294 291 291 292 291 291 291 290 290 291 291 290 290 289 289 289
299 299 300 300 300 299 299 299 298 298 298 298 298 298 297 297 298 300 299 302 308 306 295 287 287 287 287 288 289 291 294 296 296 299 303 300 293 294 299 301 297 298 300 299 298 297 296 299 299 297 298 299 296 295 298 301 298 293 292 295 295 293 293 295 296 294 294 297 300 297 295 294 292 291 291 290 290 290 290 290 290 290 290 290 289 289 289
299 299 299 299 299 299 298 298 298 298 299 299 298 298 297 297 298 300 299 297 298 297 292 287 286 286 286 286 286 286 288 289 289 291 295 297 295 294 296 299 299 297 296 297 298 298 296 297 299 297 296 297 296 295 295 298 298 295 292 294 295 293 292 293 294 294 294 295 295 294 293 293 292 291 290 290 290 290 290 290 289 289 290 289 289 289 288
299 299 299 299 299 299 298 298 299 299 298 299 298 298 298 298 298 299 298 295 291 290 288 286 288 289 287 286 286 286 285 286 287 287 289 295 298 295 294 297 297 294 293 295 296 298 299 299 296 296 298 298 298 297 295 295 296 295 293 294 293 292 292 292 293 294 293 292 292 292 291 292 291 291 290 290 290 290 289 289 289 289 289 289 289 288 288
299 299 299 299 298 298 298 298 298 298 298 299 299 298 298 298 298 298 297 295 296 298 294 289 290 292 289 287 287 286 285 285 287 286 286 290 296 297 295 293 292 294 295 293 290 292 297 296 292 293 297 297 296 299 299 296 294 293 293 293 292 292 292 291 291 291 291 292 292 291 290 290 290 290 290 290 289 289 289 289 289 289 289 288 288 287 287
299 299 299 299 298 298 298 298 298 298 298 298 298 298 298 298 297 298 297 297 301 307 305 296 292 289 288 287 286 286 286 285 285 286 286 286 290 295 295 291 289 293 293 288 287 291 297 296 293 295 297 294 293 296 298 295 293 292 291 290 290 291 291 289 289 289 290 291 291 289 290 290 290 290 290 289 288 289 288 289 289 289 288 288 287 287 286
299 299 298 298 298 298 298 298 298 298 298 298 298 298 298 298 297 298 298 296 298 305 310 301 293 287 287 288 287 286 286 285 284 284 285 286 286 288 289 288 288 290 288 286 288 294 296 296 296 298 296 292 292 295 295 292 291 290 289 289 289 290 289 288 288 288 289 289 289 289 289 289 289 290 289 288 288 288 288 288 289 288 287 286 286 286 285
299 298 298 298 298 298 298 298 298 298 297 297 298 297 298 298 298 297 298 298 298 304 309 302 293 288 287 287 286 286 285 285 284 284 284 284 285 285 286 286 288 290 290 289 291 294 296 296 295 294 292 290 291 293 291 290 290 289 288 287 288 288 288 288 288 288 288 288 288 288 288 288 288 288 287 287 288 287 287 288 287 286 285 285 285 285 284
299 298 298 298 298 298 298 298 298 298 297 297 297 297 297 297 297 297 297 297 297 301 305 300 292 290 291 289 286 286 286 285 284 284 284 283 284 286 285 284 287 292 294 292 292 295 297 295 292 291 291 290 292 291 290 291 292 290 287 287 287 287 287 288 288 288 288 288 288 287 287 286 286 286 287 287 287 287 286 285 284 283 284 284 284 284 284
298 299 298 298 298 298 298 298 298 298 298 298 297 297 297 297 296 297 297 296 296 298 300 298 293 292 294 292 287 286 287 286 284 284 284 285 286 286 285 286 288 290 291 292 294 296 295 292 291 291 290 290 292 293 293 293 293 289 287 287 287 287 287 287 287 287 287 287 287 286 285 285 285 286 286 287 286 285 283 282 283 283 284 284 284 283 283
298 299 298 298 298 298 297 298 298 298 299 298 296 300 304 301 297 296 297 297 296 297 302 306 300 293 290 290 288 287 286 286 285 285 285 286 286 286 286 287 287 286 290 294 295 293 293 292 292 291 289 288 292 294 292 291 290 288 287 287 286 286 287 287 287 287 287 287 287 285 284 284 285 285 286 285 284 282 281 282 283 283 283 283 283 282 281
298 298 298 297 298 298 297 298 297 297 299 298 298 304 308 303 298 296 296 298 298 297 302 307 299 292 291 291 289 287 286 285 286 287 286 287 287 287 287 289 288 288 293 297 294 291 292 293 293 293 291 291 294 294 290 288 288 287 287 287 286 286 286 286 286 287 287 286 285 284 283 283 283 284 283 282 281 281 282 282 282 282 282 282 281 280 279
298 298 297 298 298 297 298 298 297 298 298 297 298 301 301 299 298 296 295 298 298 296 302 306 299 296 300 296 289 286 287 286 285 286 288 288 288 288 287 288 289 290 293 295 294 293 292 292 293 293 291 290 293 293 289 287 287 287 286 286 286 285 285 285 286 286 286 285 284 283 282 282 282 281 281 280 281 281 280 280 280 281 280 279 278 278 278
298 298 298 298 298 297 298 297 297 298 298 297 297 298 297 298 298 296 296 298 296 294 301 308 303 300 300 295 289 288 289 289 288 290 291 288 287 288 290 289 288 290 292 292 293 292 290 291 294 294 290 288 292 293 289 286 286 286 286 286 286 285 285 285 286 286 285 283 282 282 281 280 280 280 280 280 281 280 279 279 280 280 279 278 278 278 278
298 298 298 298 297 297 297 297 298 299 299 297 296 297 298 299 298 296 297 298 296 296 300 303 303 302 301 299 297 292 289 291 295 296 293 289 286 289 292 291 291 293 292 290 291 291 291 292 295 293 290 289 290 290 288 287 286 286 285 285 285 284 284 285 285 284 282 282 281 280 279 279 279 279 280 280 280 279 278 279 279 278 278 277 277 276 275
300 298 298 297 298 297 297 297 298 299 298 297 296 296 297 298 297 298 298 296 298 304 303 298 301 305 304 305 306 297 289 292 295 293 291 290 287 287 290 294 295 295 291 289 291 292 291 291 292 292 290 289 288 288 287 286 286 285 285 285 284 284 284 284 283 281 280 280 280 279 279 279 279 278 279 279 278 278 278 278 279 278 277 276 274 273 273
301 299 298 298 298 297 297 298 299 298 297 297 297 296 297 297 297 298 298 296 299 307 307 302 300 300 297 299 302 295 290 293 294 290 290 291 289 287 291 297 297 292 288 290 294 293 289 288 290 291 290 288 288 287 286 285 285 285 284 284 284 283 283 282 280 279 279 278 278 278 278 278 278 278 278 277 277 277 278 278 277 276 274 272 271 271 271
301 300 299 298 298 298 298 297 297 298 297 296 296 297 297 297 297 298 299 298 297 298 301 303 300 294 291 294 297 294 293 295 295 293 293 295 292 291 293 297 297 293 291 294 294 290 288 289 291 290 289 287 287 286 285 285 285 284 283 283 283 282 281 280 279 278 278 277 277 277 277 277 277 276 276 276 276 277 276 275 274 272 271 270 270 270 270
301 300 299 298 299 302 302 298 297 297 296 296 298 299 297 297 299 300 299 300 298 294 294 297 296 292 291 293 295 294 294 294 294 294 294 293 293 293 293 294 294 293 294 294 289 286 288 292 292 289 288 287 286 286 285 284 284 284 283 283 283 281 280 279 278 277 277 276 276 277 277 277 276 275 275 276 276 275 274 272 271 270 269 269 269 269 269
301 300 299 298 300 302 301 298 296 297 297 296 297 298 297 298 301 302 300 299 299 295 293 295 294 291 292 296 296 293 291 291 295 297 294 293 294 294 294 294 292 293 295 294 287 285 289 292 290 289 289 287 286 285 284 284 284 283 283 282 282 280 279 278 277 277 276 276 276 277 277 276 275 275 275 275 274 273 272 270 269 268 268 268 269 269 268
300 299 299 300 299 299 299 298 297 297 297 297 298 300 301 301 299 299 301 303 300 294 292 293 292 288 288 291 293 292 290 290 292 293 293 293 292 291 293 294 292 293 297 295 288 287 291 292 290 289 288 286 285 285 284 283 283 282 282 281 280 279 278 277 276 276 276 276 277 276 276 276 276 275 274 273 271 270 269 268 268 268 268 268 268 268 267
300 299 299 300 300 298 298 298 297 296 298 300 301 301 302 300 297 296 300 305 301 293 289 290 293 293 290 289 291 292 290 288 287 288 291 293 291 290 293 293 290 292 297 293 287 288 293 294 292 290 287 285 285 284 283 283 282 281 281 280 278 277 277 276 275 275 276 276 276 275 275 276 275 273 272 271 270 269 268 267 267 267 267 267 267 266 265
299 299 299 300 299 298 298 299 298 297 300 304 304 301 299 299 299 298 298 298 296 292 289 289 291 292 290 287 287 288 288 286 287 289 292 293 291 291 293 294 294 296 295 289 286 290 296 295 292 290 287 285 284 284 283 282 281 280 280 279 277 277 275 274 274 275 275 275 275 275 275 274 272 270 270 269 268 267 267 266 267 267 267 266 265 264 264
299 299 299 299 299 298 299 300 298 298 303 306 305 302 301 300 299 298 297 293 290 289 289 288 288 289 289 287 285 286 286 286 288 291 292 291 290 292 295 296 295 293 290 287 289 295 297 293 290 288 286 285 284 283 281 280 279 279 279 278 276 275 274 274 274 275 274 274 275 275 274 272 270 269 268 268 267 266 266 266 266 266 266 265 264 263 263
299 299 299 301 300 299 300 299 297 299 303 302 300 302 304 302 300 300 299 295 291 289 288 286 286 289 291 288 286 288 289 288 288 290 290 289 291 295 296 295 291 288 288 291 295 294 290 288 288 286 285 284 283 281 279 279 278 278 278 276 275 274 273 273 274 274 274 274 274 273 271 270 269 268 267 266 266 266 266 266 266 265 264 263 263 262 262
302 303 305 306 303 299 300 301 299 299 300 299 298 301 302 300 301 302 296 289 287 288 287 284 283 286 289 287 285 287 290 291 291 291 289 289 292 294 292 290 289 288 289 292 294 291 287 287 287 286 284 283 281 279 278 278 278 277 276 275 274 273 273 273 273 274 274 274 272 271 269 268 267 266 266 266 266 266 265 265 264 264 263 262 262 262 262
300 300 305 308 303 298 300 303 300 298 298 296 297 299 298 296 297 295 288 283 286 288 286 283 282 285 289 290 288 287 289 291 291 289 287 289 294 292 287 286 290 291 290 291 292 291 288 286 285 285 283 281 279 278 277 277 277 276 275 274 273 273 273 273 273 273 273 272 270 269 268 267 266 266 265 265 265 265 264 264 263 262 262 261 261 261 261
300 298 302 307 304 299 299 300 296 294 294 292 292 294 291 288 288 286 282 280 282 283 282 281 281 282 284 287 288 288 289 291 290 288 287 289 293 291 288 290 293 291 289 290 291 289 286 285 285 284 281 278 277 277 277 277 277 275 273 273 273 272 272 273 273 273 271 270 269 268 267 266 265 265 265 265 265 264 263 263 262 261 261 261 261 261 261
301 299 301 305 303 299 298 296 292 290 289 288 289 288 284 284 287 287 281 277 278 281 282 283 285 286 286 286 288 290 291 291 290 289 287 289 291 291 291 293 293 287 284 286 287 285 285 285 284 281 279 277 276 276 276 277 276 274 272 272 272 272 272 273 273 271 270 268 268 267 266 265 264 264 264 264 264 263 262 262 261 261 260 260 260 260 261
297 297 298 298 297 296 294 292 293 293 291 288 288 287 285 287 289 287 280 277 278 280 279 280 284 288 289 288 290 292 291 289 290 290 289 289 291 290 289 291 292 289 285 285 284 284 285 284 281 279 277 276 276 276 276 276 274 272 271 271 271 271 272 272 271 269 268 267 267 266 265 264 264 263 263 263 263 262 261 261 261 260 260 260 260 260 260
294 297 296 294 295 296 293 291 295 298 296 292 289 288 287 288 288 284 279 277 277 279 280 281 284 288 289 290 293 295 291 287 288 291 290 289 289 287 287 289 290 288 285 284 284 284 284 282 279 277 276 275 275 276 276 274 272 271 271 271 271 272 272 271 269 268 267 267 266 265 264 263 263 263 263 262 262 261 260 260 260 260 260 260 260 260 260
295 294 290 289 291 294 293 293 296 297 296 293 291 287 285 287 288 283 278 276 278 284 289 288 287 290 293 294 294 293 289 286 288 289 288 287 286 287 287 288 287 284 284 284 284 283 282 279 276 276 275 274 275 276 275 272 271 270 270 271 272 271 271 269 267 266 266 266 265 264 263 263 262 262 261 261 261 260 259 260 259 259 259 260 260 259 259
298 295 291 288 287 288 289 292 294 292 290 289 287 284 283 286 285 280 276 278 285 290 290 287 288 293 295 293 290 288 288 288 289 289 286 285 285 285 285 285 284 283 283 283 282 280 279 276 275 275 274 274 274 275 273 271 270 270 270 271 271 270 269 267 266 265 265 265 264 263 263 262 261 261 260 260 260 259 259 259 259 259 259 259 259 259 259
Wind_Speed
8 8 9 9 10 10 12 13 12 13 14 12 10 6 2 2 1 1 6 5 1 4 3 3 3 0 2 1 0 0 1 1 0 0 1 0 1 1 1 2 1 1 1 1 2 2 2 3 3 2 3 2 2 2 3 4 2 1 1 1 0 1 2 1 4 5 3 3 3 2 2 3 2 1 1 3 2 3 5 4 3 2 2 1 1 4 5
9 10 10 10 9 10 11 12 12 13 14 14 10 3 2 2 2 1 6 6 0 2 0 2 3 3 2 3 1 1 1 2 1 1 2 1 2 1 1 1 1 0 1 1 2 2 1 2 2 1 2 2 1 1 3 3 0 1 1 2 0 1 0 1 3 6 6 5 5 5 4 0 2 1 0 2 3 5 2 2 3 1 5 6 4 7 4
10 10 10 9 9 9 10 10 11 11 12 13 10 2 2 1 0 2 6 7 5 2 3 4 2 2 2 3 2 2 1 1 1 1 1 1 2 1 1 1 1 1 2 1 1 1 1 2 2 1 1 3 1 1 3 2 0 0 2 1 0 2 1 2 0 3 4 5 5 3 2 2 1 1 1 3 3 5 2 1 2 2 5 6 5 8 8
10 10 10 9 9 9 9 9 9 9 10 12 9 4 2 2 1 3 5 7 7 2 1 4 3 1 1 1 2 1 0 2 0 1 2 1 2 1 0 1 1 2 1 0 2 2 1 0 1 1 2 4 2 1 2 1 1 1 3 1 3 2 1 2 5 6 7 8 6 1 2 2 4 4 4 5 4 5 4 2 2 3 2 3 6 9 13
10 10 10 9 9 9 8 8 8 7 8 10 7 5 3 2 1 1 2 3 4 4 3 4 3 1 2 1 1 1 2 3 2 0 1 0 1 0 1 1 1 2 2 1 2 2 1 1 0 2 3 3 3 1 1 1 2 3 2 0 4 4 2 3 6 9 11 9 7 3 2 3 7 6 6 6 4 5 5 5 7 3 1 4 7 7 11
10 10 10 9 9 10 8 7 7 5 6 7 5 3 3 2 1 1 1 1 1 2 3 2 4 2 1 1 1 1 2 3 1 1 1 1 0 1 0 1 3 5 4 2 1 1 1 1 2 2 2 3 3 2 1 1 4 4 2 2 3 5 3 3 3 8 11 8 9 8 3 5 5 4 8 8 4 7 8 10 10 4 3 9 11 9 12
10 10 10 10 10 10 8 7 6 4 4 6 4 2 1 2 1 0 2 0 2 1 2 2 4 3 2 1 1 1 2 3 3 2 1 2 1 1 1 4 4 4 3 2 2 2 1 2 4 2 2 2 1 2 1 1 3 3 3 3 1 4 3 2 1 6 11 9 8 6 3 3 4 5 8 7 6 9 9 10 10 7 9 14 15 15 16
11 11 11 11 10 9 7 6 5 4 3 3 3 2 0 1 2 1 2 2 1 1 2 2 3 1 1 0 1 2 4 3 3 1 2 1 2 1 3 5 3 2 3 4 4 6 5 3 4 4 2 2 2 2 2 2 2 3 2 1 1 1 2 1 2 4 9 6 4 3 3 3 4 7 7 4 3 5 5 6 6 5 8 12 11 13 13
11 11 11 11 10 8 7 5 5 4 2 0 2 2 1 2 3 3 3 1 1 1 1 2 3 1 1 1 1 1 3 5 2 1 2 2 2 4 5 4 1 2 1 4 7 7 6 5 5 5 3 2 3 2 1 4 3 1 1 0 1 1 1 1 4 3 6 3 6 6 2 2 2 5 7 6 3 2 3 4 5 5 8 10 7 6 7
11 11 11 11 10 10 8 7 6 5 3 2 2 2 3 3 2 2 4 1 1 1 1 2 2 1 2 2 1 1 3 3 1 1 1 1 1 4 6 5 2 0 2 5 7 5 4 4 4 2 3 1 2 2 2 4 5 4 3 1 1 2 2 1 2 1 6 4 6 8 5 4 1 1 4 6 5 4 4 4 5 6 6 5 5 4 5
11 11 11 11 10 9 9 7 7 7 6 5 3 3 5 4 2 3 4 1 2 1 1 1 1 1 2 2 1 0 1 1 1 1 2 1 1 1 3 4 1 3 4 4 2 1 2 2 1 3 4 5 5 4 4 6 4 2 4 3 1 2 4 2 1 1 5 8 8 7 4 2 3 3 3 4 7 6 5 7 11 10 4 3 4 5 7
10 10 10 10 9 9 8 7 7 8 8 9 6 3 4 5 3 3 5 1 3 1 1 2 3 1 1 1 1 2 2 2 2 1 1 2 1 1 2 3 1 2 2 0 1 2 2 2 2 3 5 6 6 6 8 7 5 3 3 6 4 3 4 1 1 2 4 6 7 7 3 3 6 4 1 4 6 7 7 8 12 11 3 1 5 8 10
9 9 9 9 9 9 9 7 6 7 9 11 9 5 4 5 3 3 5 3 2 2 1 2 2 1 0 1 2 2 2 2 1 0 0 1 2 2 1 3 3 1 1 2 3 3 1 1 2 2 3 4 4 6 7 6 5 5 3 3 5 5 4 2 1 1 2 3 5 3 5 5 3 4 5 6 3 4 6 7 9 8 1 3 7 10 12
9 9 9 9 8 7 7 6 4 5 7 10 11 7 6 6 3 2 4 3 2 4 2 2 2 1 2 3 2 0 2 2 2 1 1 0 2 4 3 3 2 1 1 2 2 2 0 1 4 3 3 3 4 3 3 3 3 4 4 3 3 6 4 1 1 1 1 0 1 4 5 4 3 4 5 5 4 5 5 6 7 4 2 3 9 13 15
9 9 8 8 7 6 5 4 3 2 4 8 11 9 7 7 4 1 3 4 1 2 1 0 2 2 2 3 2 2 3 3 2 1 1 1 2 4 4 3 2 1 1 2 2 3 1 1 3 3 4 2 2 2 1 1 2 3 3 2 3 3 2 2 2 0 2 1 3 4 4 3 2 2 5 5 7 7 4 3 5 2 1 5 11 13 16
8 8 8 7 7 6 5 4 2 1 3 6 9 9 7 7 6 3 3 5 3 1 2 2 2 4 3 1 2 1 1 1 0 1 3 3 3 3 3 2 1 1 2 3 2 3 3 1 2 1 2 1 1 2 2 0 2 2 3 4 6 5 2 3 3 1 2 2 0 1 2 3 3 4 8 8 6 5 2 0 4 4 4 10 12 13 16
7 8 8 8 7 6 5 4 3 3 5 7 7 6 6 7 6 3 2 4 3 0 1 1 1 3 3 1 1 1 1 1 1 1 2 3 2 3 4 2 0 1 2 3 3 3 4 2 2 1 3 2 2 1 2 1 2 4 4 5 6 5 5 3 2 1 1 3 1 2 4 3 2 5 10 9 1 4 4 5 6 6 9 12 12 14 16
7 8 8 8 7 6 6 5 5 6 7 7 5 4 4 4 5 4 2 4 3 0 1 0 1 1 2 1 1 2 2 1 1 1 2 2 1 2 2 1 1 0 0 2 2 3 3 0 1 1 3 3 1 1 2 1 2 3 1 2 3 3 3 1 2 1 2 3 2 3 4 3 4 8 11 9 2 5 5 8 8 9 14 13 12 15 15
8 8 8 8 8 8 8 8 7 7 6 5 3 2 1 1 4 5 3 3 2 1 0 0 0 0 0 0 1 1 1 1 1 1 1 3 1 2 0 1 0 0 1 2 2 2 1 2 1 2 1 4 2 1 0 1 1 1 1 1 2 2 1 2 1 1 1 2 2 3 4 3 3 8 9 6 5 4 6 9 9 10 13 14 14 14 13
8 8 8 8 8 8 9 9 8 6 4 3 2 2 2 1 4 6 3 2 4 3 0 1 1 0 0 0 1 1 0 1 1 2 2 1 1 1 3 4 2 0 2 2 1 0 1 1 2 1 2 3 2 1 1 2 2 1 0 0 1 1 0 2 2 2 0 1 1 2 3 3 5 11 8 5 5 6 9 10 10 10 12 14 14 13 12
8 7 6 6 7 8 8 8 8 6 5 3 2 2 3 2 4 6 3 2 5 3 0 1 1 1 1 1 1 1 1 1 1 1 1 1 1 2 1 2 2 1 0 1 1 1 1 2 2 1 1 2 1 0 0 1 3 2 1 2 1 1 2 2 3 1 2 1 1 1 4 5 6 8 6 6 8 8 8 8 10 11 12 12 12 13 14
6 6 6 6 6 7 8 8 8 8 7 5 3 2 4 5 7 5 2 5 9 8 4 4 4 4 5 4 3 3 3 2 2 1 2 0 1 1 2 1 1 1 1 2 1 1 1 2 1 1 1 1 1 1 1 3 2 4 2 3 1 2 3 1 4 2 0 3 6 5 6 7 5 4 6 11 12 8 6 8 10 11 11 11 11 14 17
6 6 6 7 7 7 8 8 8 8 7 6 5 4 6 7 8 6 6 10 13 10 6 6 5 4 4 5 5 4 3 2 2 1 2 2 2 1 1 0 0 1 0 1 0 2 2 2 1 1 1 2 2 3 3 3 1 2 3 3 1 2 2 1 1 3 5 5 6 6 7 8 8 8 10 11 10 8 9 11 12 12 11 11 11 14 16
6 7 7 7 8 9 9 9 8 8 7 7 7 7 6 7 8 7 6 6 7 5 3 2 2 2 2 3 3 2 4 3 1 0 1 1 1 1 1 1 0 1 1 0 1 2 2 1 1 2 0 2 2 3 2 2 2 1 2 4 4 3 3 3 3 6 6 4 5 9 10 10 13 14 11 9 10 11 12 13 14 14 13 12 13 15 16
6 7 7 8 9 10 11 11 11 10 8 7 6 6 6 5 6 3 2 2 3 4 3 2 2 2 2 2 3 2 5 3 1 0 1 1 1 1 1 2 0 0 1 1 1 2 3 1 1 2 1 2 1 1 1 3 3 2 4 5 5 4 5 5 5 5 5 7 10 13 13 11 11 10 8 9 13 15 15 14 14 13 13 16 18 17 15
6 6 7 7 8 10 11 11 12 11 9 7 6 4 3 2 2 2 2 1 2 4 3 1 1 1 2 3 3 3 5 3 1 0 1 1 0 1 1 2 1 0 1 3 2 3 3 2 2 3 2 1 2 2 2 4 4 3 5 5 4 4 4 5 6 5 5 7 10 15 16 12 8 6 9 13 15 17 18 16 14 13 15 17 19 18 18
6 6 6 6 6 7 8 9 11 10 7 5 6 5 4 3 0 2 2 1 0 2 2 1 1 1 3 4 3 4 4 3 1 1 1 1 1 1 1 2 2 1 2 3 2 2 4 3 2 2 1 0 2 3 3 4 5 4 5 5 4 4 5 5 6 6 6 7 10 12 14 13 11 14 18 17 16 18 18 16 15 17 17 16 17 21 24
6 5 5 4 3 4 7 9 10 9 6 2 3 5 6 6 4 3 2 1 2 3 3 2 1 2 4 3 4 5 4 3 2 2 2 3 3 3 3 3 2 2 3 2 1 2 4 3 1 1 1 0 2 3 2 2 4 4 5 6 6 5 5 6 6 6 9 11 11 9 9 12 17 20 20 17 16 17 18 19 20 19 17 17 17 20 23
7 5 4 2 3 4 6 8 9 9 7 2 2 2 3 5 7 6 4 3 4 5 5 4 2 2 2 1 4 5 4 4 3 3 3 4 5 5 5 4 3 2 3 3 2 3 3 2 2 1 1 0 2 2 2 3 3 3 4 6 6 5 5 6 7 8 11 11 10 9 11 14 18 20 18 17 19 20 19 21 20 18 21 23 21 21 21
6 5 4 3 3 3 5 7 9 10 8 2 1 1 2 3 5 6 4 2 3 4 4 4 2 1 0 0 2 4 4 3 4 4 5 6 6 6 5 4 3 2 3 3 2 3 2 1 1 1 2 1 3 3 3 2 1 1 3 7 8 7 6 6 6 8 10 9 9 12 13 14 17 19 18 19 24 24 20 19 21 24 28 28 24 23 27
5 4 3 3 3 3 5 7 8 9 9 5 2 2 2 1 4 6 3 1 1 2 4 4 2 1 1 1 1 3 4 3 3 5 5 5 6 6 5 3 3 3 3 2 2 2 2 1 3 2 3 4 5 4 3 3 2 4 8 10 9 8 9 8 8 8 8 9 13 15 15 13 14 16 16 19 26 27 21 20 26 29 28 27 28 27 29
5 5 4 4 4 4 6 7 6 6 8 8 7 5 3 1 5 5 1 1 0 2 3 4 2 0 1 1 2 3 3 2 2 3 4 3 4 4 4 3 3 3 3 3 2 2 2 1 1 2 3 4 5 4 3 5 5 8 11 11 10 9 10 11 11 8 6 11 15 17 18 19 17 17 19 23 27 27 26 28 31 31 28 29 31 29 28
6 6 5 5 5 5 5 5 5 4 4 7 8 8 7 8 8 5 1 1 2 2 3 3 2 1 1 1 2 3 3 1 1 3 3 3 3 2 3 3 3 3 4 3 1 1 1 1 2 3 2 3 4 4 4 5 6 8 11 10 10 11 11 12 10 7 8 14 16 14 16 20 21 24 27 27 24 26 29 30 29 28 28 27 23 23 27
6 6 5 4 4 4 4 3 3 3 2 4 6 7 9 11 13 11 6 1 1 4 5 4 2 1 3 2 2 3 3 2 2 3 2 3 3 2 1 3 3 3 4 3 1 1 2 1 2 2 2 3 4 4 3 6 9 10 10 10 11 13 13 11 9 8 10 15 18 16 17 20 21 23 24 21 22 28 31 29 26 24 23 20 18 24 31
6 5 4 4 4 3 2 2 2 2 2 4 4 3 3 5 10 15 14 7 3 2 3 4 3 2 3 4 3 3 3 2 1 1 1 2 3 2 1 2 3 3 2 2 2 3 2 1 2 2 2 3 4 3 3 8 11 11 10 11 14 15 13 11 11 11 12 17 18 18 19 20 19 18 17 16 22 28 28 26 26 25 21 19 22 27 28
6 5 4 4 3 2 0 1 2 2 2 2 2 2 2 1 4 10 15 16 12 6 2 1 3 3 1 2 3 4 5 3 1 2 1 1 2 2 3 4 3 1 1 2 3 3 2 1 2 3 3 3 3 3 4 8 11 12 11 12 14 13 11 13 14 15 17 20 18 16 17 18 17 16 15 15 18 21 21 21 24 24 22 21 21 22 23
6 4 3 2 1 2 2 2 2 2 2 2 3 3 3 2 2 4 8 12 15 11 6 4 2 1 1 1 3 5 6 3 2 3 3 1 1 2 2 3 2 0 2 4 3 1 2 2 3 4 3 3 4 4 5 8 9 10 11 12 12 9 9 12 16 17 20 22 20 17 17 18 17 15 15 15 17 19 19 19 20 21 21 21 20 22 25
4 3 2 1 2 2 1 1 1 2 2 3 4 3 2 2 3 4 3 4 7 8 6 5 1 1 1 1 3 4 5 2 1 3 2 1 1 2 2 2 2 1 2 2 2 1 2 4 3 5 3 1 3 5 6 8 6 7 10 11 10 11 13 16 19 18 17 19 20 19 19 20 21 20 18 19 22 22 20 20 22 23 23 24 25 27 29
3 2 1 2 2 1 0 1 1 1 3 3 2 1 2 3 3 2 2 3 3 3 4 4 1 1 2 2 3 3 4 3 2 4 3 1 1 2 1 1 1 2 3 1 2 1 4 3 2 3 2 1 3 6 7 7 7 9 13 14 14 16 19 20 21 18 15 14 16 18 18 19 19 20 19 19 21 23 23 25 27 28 27 28 29 29 29
2 2 2 2 2 2 2 2 1 2 2 2 2 1 2 3 3 1 1 3 3 2 2 2 0 1 1 2 2 3 4 4 2 1 1 1 1 1 1 1 1 2 3 1 2 2 3 1 1 3 1 3 5 7 8 8 9 12 16 17 18 21 23 23 22 21 20 18 18 20 21 19 18 20 21 19 17 19 23 26 28 29 30 31 31 29 29
1 2 2 2 3 3 4 4 3 2 1 2 3 3 2 2 2 1 2 4 3 2 2 2 3 3 2 2 0 2 3 3 2 2 1 1 1 1 2 1 1 3 2 1 1 3 4 2 2 2 1 2 6 9 10 10 11 13 16 19 20 23 24 24 22 22 21 20 21 22 22 20 20 23 25 23 21 22 24 27 30 30 29 30 31 31 33
2 3 4 5 5 3 2 4 5 4 2 2 2 2 2 1 2 2 2 2 1 2 2 2 2 3 4 2 1 2 1 2 2 2 2 2 1 2 1 1 2 4 1 2 1 3 4 3 2 2 3 4 8 10 11 11 12 13 15 19 22 24 25 24 23 21 21 21 22 22 21 21 25 27 27 26 27 27 27 29 31 30 28 30 31 32 34
5 5 5 4 3 3 3 3 4 3 3 3 3 3 3 3 2 2 2 2 1 1 2 2 3 4 3 1 1 2 1 1 1 1 1 1 1 2 3 2 2 2 0 1 3 4 3 1 1 3 3 7 9 10 11 13 14 13 14 18 21 24 25 24 22 20 21 21 20 20 22 24 26 28 28 28 30 31 30 31 30 28 29 32 33 33 35
4 2 2 2 2 4 3 2 2 3 3 3 2 2 2 3 2 1 2 3 2 2 2 2 2 3 3 1 1 1 1 1 1 1 1 1 1 2 3 2 1 1 2 3 3 2 0 2 3 2 6 9 9 9 11 13 13 12 13 17 21 24 25 24 22 22 23 22 21 22 25 25 25 26 27 28 29 30 31 32 30 29 32 35 34 34 37
1 2 3 3 3 3 2 1 2 3 3 1 0 3 2 1 2 2 2 1 1 2 3 2 2 1 3 3 1 1 1 1 1 1 1 1 3 2 1 0 1 2 3 3 2 2 2 2 2 4 9 10 9 10 12 13 12 12 13 17 22 25 24 23 23 23 22 22 23 25 25 25 25 25 26 27 28 28 29 30 31 32 35 36 35 37 38
2 1 3 4 2 2 2 2 2 2 1 1 2 3 3 3 4 4 2 1 1 3 4 2 0 1 2 2 1 1 1 2 2 1 0 2 2 1 0 1 2 3 3 3 2 2 2 3 4 6 9 9 9 10 12 13 13 13 13 15 20 24 24 23 23 22 21 22 24 25 24 25 26 25 25 25 27 28 29 30 31 33 34 35 36 38 39
3 2 3 4 2 2 2 2 0 0 1 2 3 4 3 3 3 2 1 0 1 3 3 2 1 2 2 2 1 1 1 2 2 1 1 2 1 1 1 3 2 1 1 1 3 4 3 4 6 7 8 8 9 11 12 12 12 14 15 17 20 22 23 24 23 22 23 25 25 24 24 26 28 27 25 24 25 28 30 31 32 33 34 36 38 38 39
2 1 3 3 1 1 1 1 1 1 1 0 2 2 2 2 2 2 2 1 1 2 2 1 0 0 2 1 2 1 2 2 2 1 1 2 2 2 3 3 2 2 1 2 3 4 5 6 7 7 7 8 9 10 11 11 12 15 17 20 21 22 23 24 22 22 25 27 25 24 26 28 28 27 26 24 25 29 31 31 31 32 36 39 41 40 40
6 4 3 3 2 1 1 2 2 1 1 2 2 2 2 2 2 4 3 2 2 2 2 2 1 1 1 1 2 2 2 2 2 1 2 3 2 1 1 1 2 2 2 3 3 5 6 6 5 7 8 8 8 10 11 11 12 15 18 20 21 22 23 22 20 23 26 26 23 24 28 29 28 27 26 24 25 29 32 32 31 33 37 39 39 38 39
8 5 3 2 3 1 1 1 2 1 4 5 4 3 2 2 3 4 2 1 1 2 1 0 0 1 1 1 3 3 2 1 1 2 3 2 1 1 1 1 2 3 3 4 4 6 6 4 4 6 7 7 9 12 12 12 15 18 20 20 21 22 21 19 22 25 26 24 24 26 28 28 27 27 26 25 27 30 32 33 33 35 37 37 35 35 38
5 5 2 1 2 2 2 1 3 1 2 3 2 3 2 1 2 3 3 2 1 3 3 1 0 1 3 3 2 1 1 1 2 3 1 1 2 2 1 2 4 3 4 5 6 5 5 4 5 6 6 7 11 13 12 14 19 22 22 21 22 20 19 21 24 26 24 23 25 27 28 27 27 28 26 26 28 29 29 31 34 36 36 35 35 36 39
3 3 1 1 2 2 2 2 3 2 0 2 3 3 1 1 4 5 5 3 2 3 1 0 1 3 3 1 0 1 2 2 2 2 0 1 1 2 2 3 4 4 4 5 6 5 4 5 8 9 9 11 13 14 15 18 22 22 22 22 20 18 19 24 27 26 23 23 26 28 28 27 28 29 27 26 27 26 26 29 35 38 37 35 35 38 40
Wind_Direction
352 356 356 354 356 355 354 357 356 358 3 5 3 3 53 85 206 273 8 349 259 74 39 315 3 62 245 318 263 194 75 121 117 283 266 60 88 24 357 193 185 212 207 152 171 198 211 193 194 228 231 234 257 273 316 302 277 111 137 220 256 114 85 30 280 284 322 354 0 14 44 97 115 305 129 144 160 142 161 197 189 181 221 192 353 272 268
355 358 355 351 352 350 351 355 355 357 4 6 4 11 141 143 217 258 0 349 281 118 137 292 326 295 306 10 352 283 163 158 144 235 257 230 142 118 266 202 158 216 150 109 186 205 216 224 225 225 220 230 246 271 303 295 225 110 161 166 158 244 177 55 331 324 335 350 355 348 343 39 187 236 225 177 132 99 110 163 108 266 225 184 216 265 253
354 354 350 346 344 344 347 351 352 357 3 4 9 42 142 81 325 279 344 15 61 129 176 154 173 274 356 3 328 343 347 200 162 196 221 189 164 156 291 228 143 92 98 89 210 213 220 257 305 17 233 258 319 36 319 299 158 275 280 321 354 230 192 123 125 303 301 303 312 305 279 271 225 144 220 230 168 140 167 191 102 269 240 177 195 266 277
347 345 343 339 336 340 343 344 348 356 358 2 15 53 98 67 27 312 331 18 56 66 112 108 115 161 133 325 323 30 300 289 345 173 188 153 137 127 296 208 102 71 92 194 264 265 271 325 345 329 248 264 287 23 339 343 85 295 280 345 70 89 199 199 185 204 234 254 263 218 98 308 287 275 247 228 195 158 131 101 179 206 226 205 221 257 281
337 335 334 333 332 334 337 339 341 347 354 359 16 46 58 78 101 25 330 348 36 35 18 52 71 145 188 215 275 244 267 301 354 97 220 154 111 125 137 150 162 173 177 199 240 258 314 36 265 237 234 262 289 297 157 76 354 325 289 225 85 85 286 247 203 227 246 262 278 309 52 276 264 268 267 248 197 158 153 206 233 210 14 277 238 238 275
329 328 328 329 330 330 332 333 331 332 345 355 12 36 34 52 147 147 130 254 306 8 0 62 88 67 99 152 190 309 316 307 274 225 321 5 190 206 14 268 224 200 181 154 208 271 328 282 242 231 243 285 328 346 108 63 341 341 356 359 96 122 252 258 201 257 271 277 283 281 265 264 261 250 264 262 210 176 190 229 244 223 234 264 263 269 278
324 325 327 329 329 329 329 325 318 310 319 345 20 67 34 64 115 312 21 125 198 238 335 93 103 79 74 107 211 184 193 262 253 196 67 359 309 199 239 268 247 213 190 147 181 234 241 276 265 219 210 255 327 329 271 63 352 5 41 358 102 147 237 252 168 285 284 276 282 280 234 274 300 267 259 258 226 206 210 239 256 240 238 258 273 283 282
325 329 331 330 331 329 327 316 297 282 289 331 37 105 187 123 161 210 34 62 131 48 23 81 94 45 36 117 257 179 173 232 263 200 152 247 288 183 216 251 245 210 193 169 214 225 188 213 249 191 171 283 239 232 221 135 42 24 62 1 336 179 251 225 105 309 290 292 347 27 144 186 273 284 289 294 259 234 224 244 262 257 254 261 270 282 282
330 331 328 324 323 318 315 305 281 270 267 337 88 113 147 133 143 140 116 107 317 7 24 82 94 15 309 203 238 211 199 218 240 265 208 189 199 190 191 206 148 83 169 206 242 239 188 201 238 189 176 246 213 214 212 139 122 73 108 45 45 144 234 22 54 345 289 319 11 346 283 179 263 305 335 340 313 261 224 225 226 230 259 279 285 281 280
326 324 320 316 315 310 306 298 283 271 246 203 117 137 159 134 98 95 106 94 304 63 43 35 71 266 251 203 196 228 237 230 210 303 286 102 143 201 180 162 142 82 241 233 246 242 199 224 261 194 165 128 111 120 103 111 127 159 161 117 65 125 137 96 55 312 274 305 337 316 329 43 1 314 17 343 299 273 272 271 259 237 237 273 282 261 280
323 323 323 320 319 316 313 299 282 268 243 227 202 170 172 157 122 74 81 41 298 48 54 333 112 210 224 186 178 194 210 245 217 244 279 317 13 287 163 141 150 249 232 224 235 214 169 177 109 100 92 76 77 87 81 70 67 135 138 119 8 91 109 134 150 189 274 299 325 328 359 35 254 207 94 343 297 278 278 284 284 273 232 211 270 286 305
327 328 326 323 322 319 317 307 281 260 239 229 215 190 183 170 142 92 93 112 275 342 12 252 209 189 218 155 196 222 208 228 229 203 299 279 309 344 148 137 140 247 231 169 82 94 95 91 90 70 56 60 67 65 63 56 33 13 104 123 131 112 104 121 152 155 268 311 358 358 320 244 248 234 240 302 278 252 251 261 270 274 273 1 309 309 313
330 330 327 325 326 319 315 313 287 255 236 227 218 207 197 181 145 94 110 130 249 217 189 287 245 155 240 225 219 242 246 269 277 126 62 291 284 297 239 166 175 218 95 89 100 109 103 340 14 15 16 38 51 50 47 42 26 12 28 94 124 135 135 142 156 179 287 356 32 343 269 258 305 326 316 316 312 291 300 297 273 255 202 22 328 316 319
333 333 333 328 328 323 315 316 301 257 230 219 215 214 209 193 163 102 117 113 274 230 183 345 318 212 223 220 188 35 323 327 330 235 146 87 255 253 239 211 223 301 78 110 85 66 351 3 25 357 332 20 26 16 30 28 30 36 13 358 105 131 138 147 251 203 136 117 263 281 299 326 16 6 332 318 304 297 302 303 289 250 149 10 336 327 325
336 335 337 333 335 340 331 332 335 275 217 206 209 212 210 200 189 153 133 127 163 250 202 305 249 192 185 199 162 69 353 336 331 277 276 333 252 244 238 230 255 292 107 104 57 49 36 17 32 359 336 8 6 318 328 11 1 42 40 16 66 90 134 168 191 253 87 71 305 329 339 314 233 281 306 289 265 255 222 239 292 274 164 345 340 333 326
342 342 346 347 351 357 354 358 14 41 166 179 194 202 200 195 186 153 108 113 110 272 251 214 174 139 124 166 188 143 355 301 277 332 329 323 294 270 266 259 242 195 89 65 57 75 55 26 148 133 308 255 216 301 317 355 331 2 46 52 54 39 34 113 110 6 63 102 300 286 267 253 230 278 313 315 276 237 167 8 283 267 313 341 341 331 325
352 356 1 6 10 15 18 27 52 96 131 150 172 186 185 182 183 174 100 90 91 17 260 220 151 123 106 77 262 196 175 184 147 45 335 301 292 302 307 331 87 179 99 54 32 63 65 58 132 126 283 242 149 312 311 11 336 325 358 28 38 24 7 43 76 288 162 135 185 238 241 255 272 308 322 325 260 136 56 340 288 292 328 340 337 326 324
10 13 19 26 31 38 45 58 84 100 115 130 141 161 172 176 189 192 131 95 100 173 272 204 163 134 120 153 208 188 160 145 113 55 336 314 289 271 287 331 72 325 56 81 56 58 75 130 129 128 261 267 88 294 295 9 313 297 4 43 30 18 3 43 123 192 186 164 210 276 268 262 315 329 327 327 18 83 21 317 298 319 327 327 329 324 320
22 27 34 41 46 54 64 74 86 97 111 124 131 153 176 196 199 190 141 89 98 130 205 202 190 154 46 106 151 163 146 103 118 120 19 343 285 188 62 11 175 328 26 88 106 88 86 266 247 139 219 294 318 127 68 352 297 329 61 55 21 31 11 1 76 159 153 157 195 300 285 238 334 338 331 345 11 4 313 300 306 319 318 318 324 322 318
30 35 43 50 58 65 70 75 80 85 95 97 97 110 69 1 201 184 159 106 108 97 58 234 161 137 281 353 104 131 85 51 105 134 128 291 245 111 39 352 311 10 21 36 74 129 160 237 260 171 187 260 259 121 7 327 334 338 296 328 7 115 111 321 276 198 105 20 35 346 288 264 355 354 347 5 1 307 292 304 310 310 315 319 318 317 319
35 41 52 60 68 71 68 69 68 61 63 65 66 81 60 54 158 163 167 143 117 102 263 227 142 97 66 36 61 92 87 75 72 161 177 249 285 101 97 274 249 163 202 141 123 276 201 183 226 230 199 238 305 72 219 22 8 327 239 121 63 89 81 344 276 207 77 353 276 299 293 296 349 3 335 311 309 295 293 308 310 313 321 320 315 319 323
41 49 60 63 68 69 63 63 58 48 48 51 39 60 83 106 131 136 100 86 93 92 109 124 101 81 79 77 68 65 71 69 40 59 131 99 327 89 134 213 213 187 192 127 79 312 231 159 176 196 214 242 43 39 76 87 36 318 356 72 65 37 67 183 236 229 164 250 256 272 297 306 322 335 306 302 305 303 301 306 309 314 319 318 317 321 321
48 53 60 64 67 68 61 58 54 48 50 55 55 78 109 124 127 116 97 96 91 84 96 111 98 74 66 72 73 55 37 44 42 68 102 76 349 299 140 126 196 225 210 93 150 213 178 167 165 122 195 222 120 80 42 55 58 306 0 36 342 342 20 149 211 307 298 268 268 289 305 313 312 310 308 307 310 320 323 319 314 310 310 314 317 316 314
56 61 66 69 71 70 62 57 54 50 49 56 65 76 95 122 131 114 94 97 97 88 84 80 80 80 58 69 90 38 351 0 57 6 70 82 48 342 303 298 45 2 335 337 170 139 120 170 197 94 218 242 134 105 103 77 72 53 27 9 322 318 353 14 9 339 317 298 306 312 316 319 314 311 310 313 321 325 322 316 310 307 311 317 316 311 310
65 69 73 75 76 75 68 60 53 48 45 50 60 65 75 116 146 135 37 37 105 117 107 359 3 107 96 69 92 26 351 9 97 232 279 227 169 148 295 304 4 202 306 337 52 70 69 84 153 124 182 234 117 103 145 94 82 97 66 29 336 326 6 9 349 329 296 277 293 307 311 306 299 302 318 328 324 318 313 309 305 306 314 316 313 311 313
71 74 75 80 85 79 66 51 41 37 36 41 47 46 56 111 184 265 334 38 81 95 107 99 309 170 120 74 65 16 354 12 75 248 311 296 241 203 291 336 3 148 45 41 63 99 102 98 107 111 120 88 81 100 100 84 87 87 64 32 318 312 358 346 318 304 277 276 305 322 321 308 295 312 327 323 317 314 313 313 313 317 320 316 314 316 317
69 73 76 86 89 68 41 24 18 16 20 39 56 60 63 76 154 291 310 302 3 48 88 117 303 327 110 91 49 0 348 0 30 34 35 42 45 52 20 10 19 51 55 45 48 93 91 67 63 108 147 4 71 95 101 100 104 85 46 15 339 341 353 340 329 325 312 312 327 335 328 318 318 326 325 321 319 318 320 325 329 327 323 320 322 323 319
59 65 77 89 68 21 8 6 4 2 359 10 74 80 68 58 51 25 354 2 142 124 118 133 140 107 108 80 8 0 8 21 48 73 58 49 62 64 45 36 48 63 62 70 99 80 69 68 79 123 171 53 68 70 52 55 73 61 26 6 356 348 341 339 334 314 301 306 318 334 330 313 312 318 320 321 324 326 329 332 328 321 321 326 326 323 320
45 51 66 63 12 358 8 14 11 7 1 334 204 141 75 48 41 41 42 72 101 105 103 101 96 85 94 24 346 358 16 26 45 77 74 61 64 59 48 50 77 105 94 94 104 91 75 102 152 151 345 87 114 89 45 35 54 63 25 357 343 323 309 313 310 298 295 302 318 334 328 313 312 317 318 323 334 337 331 324 319 320 327 330 326 324 328
30 37 45 34 18 16 17 16 13 11 12 20 177 103 51 41 27 25 34 72 99 112 114 107 96 73 105 259 337 358 15 41 65 72 68 63 55 46 45 53 62 81 77 57 74 104 103 39 18 333 314 337 105 102 68 45 73 76 353 347 338 323 309 300 292 290 296 308 325 329 321 314 315 316 317 327 335 330 318 314 321 327 327 328 330 335 339
10 14 14 13 15 13 5 3 9 17 22 34 84 76 71 36 343 353 13 54 96 120 109 95 93 68 9 335 337 3 10 37 76 70 61 59 49 37 42 50 30 35 59 61 65 100 101 31 22 2 336 12 68 103 106 66 31 328 335 344 341 331 324 317 300 285 291 321 332 326 319 318 320 320 323 327 325 321 318 322 326 325 325 331 336 336 334
353 349 344 344 343 346 354 358 5 21 34 50 71 88 101 358 332 335 1 80 130 147 111 87 84 55 351 330 314 348 9 40 71 54 42 39 33 22 26 37 34 42 66 87 80 56 57 83 65 28 353 18 59 99 96 60 22 333 332 337 333 330 328 318 307 302 329 351 346 332 326 328 332 332 326 320 322 330 334 329 325 326 330 334 332 327 326
339 335 335 331 325 327 336 349 1 17 43 62 74 77 68 47 27 15 27 89 70 86 98 95 88 35 339 267 301 339 7 33 25 32 35 19 3 2 4 11 27 37 37 50 84 50 31 121 91 45 2 19 70 96 76 39 5 331 327 328 328 330 326 317 319 339 1 356 349 338 325 322 324 324 319 316 327 339 334 326 328 332 333 331 327 327 332
326 325 329 326 326 328 323 333 4 20 51 77 79 75 65 53 42 38 45 107 117 63 56 70 89 358 340 343 337 354 18 23 352 13 28 353 353 18 10 347 10 38 28 27 72 47 7 31 75 51 345 356 49 78 48 6 350 336 332 333 334 331 324 325 345 4 355 344 337 326 315 313 315 319 319 322 336 340 333 330 334 334 329 329 335 338 337
325 322 323 319 323 328 321 343 28 48 84 87 83 84 80 54 39 42 48 50 53 55 33 38 71 66 1 352 327 327 6 36 14 358 7 337 354 46 110 20 19 35 13 8 61 53 14 28 83 51 344 1 41 59 17 350 342 339 342 341 337 334 334 345 354 349 339 338 333 324 324 328 327 328 333 340 341 338 334 334 337 337 336 337 338 337 335
326 323 324 322 326 332 353 78 70 65 80 85 77 70 82 70 39 50 54 50 51 73 129 55 65 90 26 338 299 316 357 19 332 322 355 5 355 18 77 68 48 27 6 37 56 44 357 14 76 41 6 27 69 64 13 352 343 342 346 342 335 339 350 354 347 337 334 336 336 333 337 340 336 336 340 340 335 331 331 336 343 346 344 339 336 335 335
330 332 328 323 7 51 65 85 74 47 46 101 119 98 85 91 80 66 57 47 44 53 79 90 86 149 229 283 290 328 351 347 313 347 359 329 314 343 49 71 65 320 25 32 31 9 354 14 74 78 56 71 105 88 25 3 350 342 342 338 335 348 4 357 347 341 337 338 341 343 342 340 342 345 341 333 333 338 343 348 353 352 345 337 333 332 333
342 351 348 31 69 59 38 19 16 27 69 125 130 98 43 31 58 54 30 23 29 35 53 75 87 276 343 330 303 339 359 339 333 13 6 251 285 346 32 76 89 108 43 357 285 238 42 23 57 95 92 80 93 71 23 2 353 342 340 343 350 4 7 358 352 352 347 340 339 341 343 345 349 347 338 333 338 344 349 353 352 348 343 336 331 330 334
356 10 29 58 76 99 238 332 4 82 115 125 131 98 14 17 43 36 347 359 20 10 24 55 96 238 35 15 319 344 28 35 7 10 6 329 344 351 12 76 73 67 62 11 287 72 62 18 18 87 101 309 20 32 8 354 355 352 351 357 6 8 3 357 354 353 344 327 326 335 340 345 347 342 335 336 341 342 344 348 348 343 340 336 334 334 338
28 57 46 45 75 87 57 30 55 138 122 50 32 62 41 25 39 60 4 25 31 350 349 45 55 253 62 59 297 312 23 42 39 22 6 321 279 68 64 62 63 70 64 1 314 58 83 63 25 60 43 325 357 7 358 355 358 355 358 6 9 2 357 353 350 345 335 328 333 338 334 334 345 347 341 342 345 339 337 342 342 339 337 337 337 338 340
49 61 54 92 120 101 69 53 54 87 104 41 32 45 45 17 8 34 47 42 26 317 298 45 23 332 345 55 225 281 351 28 85 126 92 318 289 92 57 343 27 78 70 293 312 66 82 68 29 23 298 327 356 356 355 359 356 352 1 7 3 355 352 349 345 344 342 342 342 336 328 335 354 355 346 342 344 339 333 334 335 335 336 338 337 338 339
108 105 103 113 117 102 61 42 33 28 42 58 38 28 25 6 1 15 27 43 16 297 306 25 12 302 294 314 239 230 283 357 27 91 75 346 323 99 86 327 25 62 60 268 357 58 62 44 2 294 278 343 1 358 359 357 348 349 1 3 355 351 351 347 342 345 350 347 339 334 338 352 359 354 345 341 341 337 333 332 332 333 337 339 337 335 336
118 120 116 108 79 37 21 21 24 31 47 46 33 24 8 0 16 23 342 313 345 4 329 325 328 315 309 318 244 235 258 335 5 89 80 1 349 61 60 28 27 46 28 16 47 53 60 83 250 272 324 360 3 2 358 348 341 348 360 357 351 351 350 345 343 346 347 341 338 345 355 358 353 347 344 341 337 333 333 335 336 336 338 338 336 335 337
133 110 80 68 27 17 18 1 5 43 53 32 34 66 15 343 341 339 309 311 332 344 321 328 356 342 317 312 27 342 306 318 72 76 38 353 13 55 57 32 341 328 1 32 44 48 8 225 230 288 352 0 1 0 351 340 340 350 352 347 349 352 349 346 347 346 341 340 348 357 358 352 346 345 344 340 336 334 335 337 340 342 340 337 335 337 339
161 359 32 44 11 3 25 1 359 40 58 26 186 155 161 274 272 246 245 240 256 315 328 10 59 327 277 278 10 40 321 335 28 29 351 20 37 44 58 225 2 39 46 34 10 347 335 305 293 345 358 358 358 355 344 337 346 356 350 344 348 350 349 348 346 342 341 349 356 357 353 349 346 345 342 338 338 340 339 339 342 343 341 338 337 339 341
96 47 72 80 20 353 57 64 20 34 105 218 210 176 181 228 241 234 228 191 350 316 310 306 148 235 282 301 4 43 13 26 38 13 62 72 58 357 241 85 50 45 48 25 335 294 280 292 323 358 2 357 353 346 336 337 352 2 356 346 344 346 347 346 341 339 348 358 357 353 350 348 344 342 339 337 339 342 343 342 342 343 341 339 338 339 342
86 52 74 88 48 11 48 85 60 190 174 192 199 201 221 255 260 253 242 218 271 295 297 281 223 221 260 291 13 22 358 47 62 12 22 80 83 309 13 61 58 56 83 16 291 269 271 314 344 360 360 352 347 340 334 340 356 2 355 345 342 343 344 341 338 345 357 358 352 349 350 346 342 341 340 337 339 342 343 342 343 344 343 342 340 341 344
88 38 60 92 111 29 54 136 151 97 63 256 238 244 267 301 297 291 291 271 273 302 314 312 117 225 277 314 54 35 339 24 57 20 1 71 71 356 14 32 351 287 187 188 253 288 314 335 348 353 350 347 344 336 332 342 356 358 351 344 342 342 340 338 342 354 359 353 348 348 348 344 342 341 340 338 339 341 341 341 343 345 346 345 344 344 346
72 70 67 88 120 139 165 141 112 84 335 322 328 355 20 8 289 273 282 323 329 309 267 217 162 105 314 353 60 52 6 11 54 37 15 35 60 88 52 31 327 297 259 219 250 310 328 339 354 353 346 343 337 330 333 347 356 354 348 343 339 338 337 340 350 358 355 349 346 347 345 343 343 342 340 341 342 340 339 341 344 347 348 347 346 344 345
53 65 64 51 71 99 210 88 73 15 321 333 349 354 0 343 295 282 302 9 338 336 4 97 125 57 25 35 51 48 16 349 79 65 39 35 128 132 45 299 232 244 275 287 301 321 329 342 359 347 336 333 332 331 337 351 354 349 344 339 335 334 338 347 355 355 350 346 345 345 344 345 345 342 340 341 340 337 338 342 345 347 347 347 345 344 344
47 66 69 29 81 129 171 120 95 85 313 320 305 286 302 320 276 284 315 354 24 35 38 37 225 49 47 43 45 47 37 65 70 62 47 220 179 118 79 253 246 264 304 311 314 323 334 349 352 341 331 332 333 333 342 352 350 344 338 333 332 336 346 354 354 351 346 343 344 344 343 344 344 341 339 339 339 340 341 342 344 345 346 346 346 347 346
52 70 72 22 60 101 107 88 91 108 202 247 239 239 258 277 273 290 315 356 67 77 68 169 99 69 60 63 78 48 45 49 44 37 353 225 168 129 164 234 277 310 319 311 311 321 334 341 338 332 326 325 327 333 345 351 346 340 335 333 336 348 356 354 350 347 344 342 342 342 342 342 343 342 342 342 344 345 342 339 340 344 345 346 347 348 346